User: anonymous   Login
Location: Caltech
(34.1382°N, 118.1253°W)
Time: 04:06:12
(UTC-07:00)
Language:

Iridium 70 - Orbit

View from above orbital plane
View from above orbital plane
View from above satellite
View from above satellite

Ground track
Ground track

The orbit data is extracted from the following two-line orbital elements,

1 25342U 98032A   16211.46955115  .00000025  00000-0  17754-5 0  9991
2 25342  86.3977 359.1431 0002166  88.5606 329.8003 14.34213366952848
Epoch (UTC): 29 July 2016 11:16:09
Eccentricity: 0.0002166
inclination: 86.3977°
perigee height: 776 km
apogee height: 779 km
right ascension of ascending node: 359.1431°
argument of perigee: 88.5606°
revolutions per day: 14.34213366
mean anomaly at epoch: 329.8003°
orbit number at epoch: 95284

The dashed part of the orbit path shows where the satellite is in the earth's shadow,  

DLR